Date String (YYYY-MM-DD hh:mm:ss) UTC,Instrument flags,absolute air pressure of the measurement (hPa),sample flow rate (lpm),inlet stack bypass flow (lpm),air temperature of the measurement (°C),ambient temperature measured by the external sensor (°C),aerosol sample conditioner tube jacket temperature (°C),OPC LED temperature (°C),internal box temperature (°C),relative humidity of the measurement (%),span deviation,mass concentration of particles derived from Lorenz-Mie calculation of OPC scattering (μg/m³),mass concentration of particles derived from Lorenz-Mie calculation of OPC scattering (μg/m³),mass concentration of particles derived from Lorenz-Mie calculation of OPC scattering (μg/m³)
DateTimeUTC,F1_M11,P_M11,Q1_M11,Q2_M11,T1_M11,T2_M11,T3_M11,T4_M11,T5_M11,U1_M11,ZSPAN_M11,X0_M11,X2_M11,X1_M11
2024-03-31 03:00:00,SystemResetWarning,0819.9,5.00,000.00,025.4,024.6,000.0,034.1,027.3,17.2,0000.0,0007.91,0003.82,0003.31
2024-03-31 03:01:00,SystemResetWarning,0819.9,5.00,000.00,025.4,024.5,000.0,034.1,027.3,17.1,0000.0,0008.09,0003.83,0003.33
2024-03-31 03:02:00,SystemResetWarning,0819.9,5.00,000.00,025.4,024.5,000.0,034.1,027.3,17.0,0000.0,0008.17,0003.84,0003.35
2024-03-31 03:03:00,SystemResetWarning,0820.0,5.00,000.00,025.4,024.5,000.0,034.1,027.3,17.1,0000.0,0008.37,0003.85,0003.36
2024-03-31 03:04:00,SystemResetWarning,0820.0,5.00,000.00,025.4,024.5,000.0,034.1,027.3,16.9,0000.0,0008.93,0003.89,0003.37
2024-03-31 03:05:00,SystemResetWarning,0820.1,5.00,000.00,025.4,024.5,000.0,034.1,027.3,17.0,0000.0,0009.33,0003.92,0003.39
2024-03-31 03:06:00,SystemResetWarning,0820.0,5.00,000.00,025.4,024.5,000.0,034.1,027.3,17.0,0000.0,0009.61,0003.94,0003.40
2024-03-31 03:07:00,SystemResetWarning,0820.2,5.00,000.00,025.4,024.5,000.0,034.1,027.2,17.0,0000.0,0009.85,0003.96,0003.41
2024-03-31 03:08:00,SystemResetWarning,0820.1,5.00,000.00,025.4,024.5,000.0,034.1,027.2,16.9,0000.0,0010.27,0003.96,0003.41
2024-03-31 03:09:00,SystemResetWarning,0819.9,5.00,000.00,025.4,024.5,000.0,034.1,027.2,17.0,0000.0,0010.15,0003.97,0003.42
2024-03-31 03:10:00,SystemResetWarning,0820.0,5.00,000.00,025.4,024.5,000.0,034.1,027.2,17.1,0000.0,0010.05,0004.00,0003.44
2024-03-31 03:11:00,SystemResetWarning,0819.9,4.99,000.00,025.3,024.5,000.0,034.1,027.2,17.1,0000.0,0009.90,0003.98,0003.46
2024-03-31 03:12:00,SystemResetWarning,0819.9,5.00,000.00,025.3,024.5,000.0,034.0,027.2,17.1,0000.0,0009.95,0003.99,0003.46
2024-03-31 03:13:00,SystemResetWarning,0819.9,5.00,000.00,025.3,024.4,000.0,034.0,027.2,17.1,0000.0,0010.14,0004.00,0003.45
2024-03-31 03:14:00,SystemResetWarning,0820.1,4.99,000.00,025.3,024.4,000.0,034.0,027.2,17.2,0000.0,0010.24,0003.98,0003.46
2024-03-31 03:15:00,SystemResetWarning,0820.2,5.00,000.00,025.3,024.4,000.0,034.0,027.2,17.2,0000.0,0010.43,0003.95,0003.47
2024-03-31 03:16:00,SystemResetWarning,0819.9,5.00,000.00,025.3,024.4,000.0,034.0,027.2,17.3,0000.0,0010.32,0003.95,0003.47
2024-03-31 03:17:00,SystemResetWarning,0820.1,5.00,000.00,025.3,024.4,000.0,034.0,027.2,17.2,0000.0,0010.46,0003.97,0003.48
2024-03-31 03:18:00,SystemResetWarning,0820.2,5.00,000.00,025.3,024.4,000.0,034.0,027.1,17.3,0000.0,0010.57,0004.01,0003.51
2024-03-31 03:19:00,SystemResetWarning,0820.4,5.01,000.00,025.3,024.4,000.0,034.0,027.1,17.3,0000.0,0010.86,0004.03,0003.52
2024-03-31 03:20:00,SystemResetWarning,0820.2,5.00,000.00,025.3,024.4,000.0,034.0,027.1,17.3,0000.0,0010.59,0004.07,0003.54
2024-03-31 03:21:00,SystemResetWarning,0820.4,5.00,000.00,025.3,024.4,000.0,034.0,027.1,17.2,0000.0,0010.68,0004.11,0003.56
2024-03-31 03:22:00,SystemResetWarning,0820.2,5.00,000.00,025.3,024.4,000.0,034.0,027.1,17.1,0000.0,0010.75,0004.15,0003.59
2024-03-31 03:23:00,SystemResetWarning,0820.1,5.00,000.00,025.2,024.4,000.0,033.9,027.1,17.0,0000.0,0010.42,0004.20,0003.64
2024-03-31 03:24:00,SystemResetWarning,0820.1,5.01,000.00,025.2,024.4,000.0,033.9,027.1,17.0,0000.0,0010.41,0004.21,0003.66
2024-03-31 03:25:00,SystemResetWarning,0820.2,5.00,000.00,025.2,024.4,000.0,033.9,027.1,17.0,0000.0,0010.76,0004.27,0003.68
2024-03-31 03:26:00,SystemResetWarning,0820.1,5.00,000.00,025.2,024.4,000.0,033.9,027.1,17.0,0000.0,0010.55,0004.30,0003.69
2024-03-31 03:27:00,SystemResetWarning,0820.3,4.99,000.00,025.2,024.3,000.0,033.9,027.1,17.1,0000.0,0011.04,0004.30,0003.71
2024-03-31 03:28:00,SystemResetWarning,0820.2,5.00,000.00,025.2,024.3,000.0,033.9,027.1,17.1,0000.0,0010.99,0004.31,0003.72
2024-03-31 03:29:00,SystemResetWarning,0820.2,4.99,000.00,025.2,024.3,000.0,033.9,027.1,17.2,0000.0,0010.87,0004.30,0003.72
2024-03-31 03:30:00,SystemResetWarning,0820.1,5.00,000.00,025.2,024.3,000.0,033.9,027.0,17.1,0000.0,0010.29,0004.33,0003.75
2024-03-31 03:31:00,SystemResetWarning,0820.2,4.99,000.00,025.2,024.3,000.0,033.9,027.0,17.2,0000.0,0010.66,0004.33,0003.75
2024-03-31 03:32:00,SystemResetWarning,0820.2,4.99,000.00,025.2,024.3,000.0,033.9,027.0,17.1,0000.0,0010.56,0004.31,0003.76
2024-03-31 03:33:00,SystemResetWarning,0820.4,5.00,000.00,025.2,024.3,000.0,033.9,027.0,17.1,0000.0,0010.53,0004.33,0003.76
2024-03-31 03:34:00,SystemResetWarning,0820.0,5.01,000.00,025.2,024.3,000.0,033.9,027.0,17.1,0000.0,0010.49,0004.30,0003.75
2024-03-31 03:35:00,SystemResetWarning,0820.2,5.00,000.00,025.2,024.2,000.0,033.8,027.0,17.2,0000.0,0010.40,0004.30,0003.74
2024-03-31 03:36:00,SystemResetWarning,0820.0,5.00,000.00,025.1,024.2,000.0,033.8,027.0,17.2,0000.0,0009.61,0004.30,0003.75
2024-03-31 03:37:00,SystemResetWarning,0820.0,4.99,000.00,025.1,024.3,000.0,033.8,027.0,17.2,0000.0,0009.22,0004.29,0003.77
2024-03-31 03:38:00,SystemResetWarning,0820.2,4.99,000.00,025.1,024.2,000.0,033.8,027.0,17.2,0000.0,0008.41,0004.31,0003.77
2024-03-31 03:39:00,SystemResetWarning,0820.3,4.99,000.00,025.1,024.2,000.0,033.8,027.0,17.2,0000.0,0008.23,0004.34,0003.78
2024-03-31 03:40:00,SystemResetWarning,0820.0,5.01,000.00,025.1,024.3,000.0,033.8,027.0,17.2,0000.0,0008.35,0004.36,0003.80
2024-03-31 03:41:00,SystemResetWarning,0819.9,5.01,000.00,025.1,024.3,000.0,033.8,027.0,17.1,0000.0,0008.32,0004.36,0003.81
2024-03-31 03:42:00,SystemResetWarning,0820.0,4.99,000.00,025.1,024.2,000.0,033.8,026.9,17.2,0000.0,0007.93,0004.36,0003.83
2024-03-31 03:43:00,SystemResetWarning,0820.1,4.99,000.00,025.1,024.2,000.0,033.8,026.9,17.2,0000.0,0008.19,0004.40,0003.84
2024-03-31 03:44:00,SystemResetWarning,0819.9,4.99,000.00,025.1,024.2,000.0,033.8,026.9,17.2,0000.0,0008.25,0004.41,0003.83
2024-03-31 03:45:00,SystemResetWarning,0819.8,5.00,000.00,025.1,024.2,000.0,033.8,026.9,17.2,0000.0,0008.33,0004.41,0003.84
2024-03-31 03:46:00,SystemResetWarning,0819.8,5.00,000.00,025.1,024.2,000.0,033.8,026.9,17.2,0000.0,0008.38,0004.41,0003.84
2024-03-31 03:47:00,SystemResetWarning,0819.8,5.00,000.00,025.1,024.2,000.0,033.8,026.9,17.4,0000.0,0008.50,0004.40,0003.84
2024-03-31 03:48:00,SystemResetWarning,0819.9,5.01,000.00,025.1,024.2,000.0,033.7,026.9,17.6,0000.0,0009.05,0004.40,0003.83
2024-03-31 03:49:00,SystemResetWarning,0820.3,5.00,000.00,025.0,024.2,000.0,033.7,026.9,17.5,0000.0,0009.24,0004.40,0003.82
2024-03-31 03:50:00,SystemResetWarning,0820.2,4.99,000.00,025.0,024.2,000.0,033.7,026.9,17.4,0000.0,0009.15,0004.40,0003.83
2024-03-31 03:51:00,SystemResetWarning,0819.9,5.00,000.00,025.0,024.2,000.0,033.7,026.9,17.3,0000.0,0008.99,0004.41,0003.82
2024-03-31 03:52:00,SystemResetWarning,0819.9,5.01,000.00,025.0,024.2,000.0,033.7,026.9,17.3,0000.0,0009.79,0004.40,0003.81
2024-03-31 03:53:00,SystemResetWarning,0819.9,4.99,000.00,025.0,024.1,000.0,033.7,026.9,17.4,0000.0,0009.85,0004.40,0003.80
2024-03-31 03:54:00,SystemResetWarning,0819.9,5.00,000.00,025.0,024.1,000.0,033.7,026.9,17.4,0000.0,0009.70,0004.37,0003.78
2024-03-31 03:55:00,SystemResetWarning,0820.0,5.00,000.00,025.0,024.1,000.0,033.7,026.9,17.3,0000.0,0009.80,0004.40,0003.79
2024-03-31 03:56:00,SystemResetWarning,0820.0,5.00,000.00,025.0,024.1,000.0,033.7,026.8,17.5,0000.0,0010.01,0004.40,0003.78
2024-03-31 03:57:00,SystemResetWarning,0820.0,4.99,000.00,025.0,024.1,000.0,033.7,026.8,18.1,0000.0,0010.14,0004.42,0003.77
2024-03-31 03:58:00,SystemResetWarning,0820.0,5.01,000.00,025.0,024.1,000.0,033.7,026.8,18.4,0000.0,0010.04,0004.38,0003.74
2024-03-31 03:59:00,SystemResetWarning,0819.9,5.00,000.00,025.0,024.1,000.0,033.7,026.8,17.9,0000.0,0009.59,0004.37,0003.74
